This is the latest recevied weather packets stored in our database for station/object HB9BB-10. If no packets are shown the sender has not sent any weather packets the latest 10 day(s).
| Time | Temp. | Humidity | Pressure | Rain* | Wind** | Luminosity | Snow |
|---|---|---|---|---|---|---|---|
| 1788255362 | 24.44° C | 31% | 1039.1 hPa | - | - | - | - |
| 1788253982 | 23.89° C | 31% | 1039.1 hPa | - | - | - | - |
| 1788252602 | 23.89° C | 31% | 1039 hPa | - | - | - | - |
| 1788251221 | 23.33° C | 32% | 1039 hPa | - | - | - | - |
| 1788249841 | 22.78° C | 32% | 1038.8 hPa | - | - | - | - |
| 1788248461 | 22.22° C | 31% | 1038.7 hPa | - | - | - | - |
| 1788247081 | 21.67° C | 32% | 1038.7 hPa | - | - | - | - |
| 1788245701 | 21.11° C | 32% | 1038.6 hPa | - | - | - | - |
| 1788244321 | 20.56° C | 32% | 1038.6 hPa | - | - | - | - |
| 1788242940 | 20.56° C | 32% | 1038.7 hPa | - | - | - | - |
| 1788241560 | 20° C | 32% | 1038.7 hPa | - | - | - | - |
| 1788240180 | 20° C | 32% | 1038.6 hPa | - | - | - | - |
| 1788238800 | 20° C | 32% | 1038.7 hPa | - | - | - | - |
| 1788237420 | 20° C | 31% | 1038.6 hPa | - | - | - | - |
| 1788236039 | 20° C | 32% | 1038.7 hPa | - | - | - | - |
| 1788234659 | 20° C | 32% | 1038.6 hPa | - | - | - | - |
| 1788233279 | 20° C | 32% | 1038.5 hPa | - | - | - | - |
| 1788231898 | 20.56° C | 32% | 1038.7 hPa | - | - | - | - |
| 1788230518 | 20.56° C | 32% | 1038.8 hPa | - | - | - | - |
| 1788229138 | 20.56° C | 32% | 1038.9 hPa | - | - | - | - |
| 1788227758 | 20.56° C | 32% | 1038.8 hPa | - | - | - | - |
| 1788226378 | 20.56° C | 32% | 1038.9 hPa | - | - | - | - |
| 1788224997 | 21.11° C | 32% | 1038.9 hPa | - | - | - | - |
| 1788223617 | 21.11° C | 32% | 1038.9 hPa | - | - | - | - |
| 1788222237 | 21.11° C | 32% | 1038.9 hPa | - | - | - | - |
* Rain since midnight (hover to see other rain measurements)
** Current wind speed in m/s (hover to see current wind gust speed)